Location: ????????
(55.0559°N, 39.1270°E)
Time: 19:10:18
(UTC+00:00)

NOSS 3-1 (A) - Pass Details

Date: 15 November 2025
Orbit: 621 x 1586 km, 63.4° (Epoch: 02 December)

Event Time Altitude Azimuth Distance (km) Brightness Sun altitude
Exits shadow 03:37:47 13° 272° (W) 2,103 4.7 -11.0°
Maximum altitude 03:42:17 46° 343° (NNW) 1,183 3.7 -10.4°
Drops below altitude 10° 03:48:43 10° 56° (NE) 2,905 6.5 -9.5°
Sets 03:51:52 0° 62° (ENE) 4,029 7.4 -9.1°
